"Time","Temp","Dewpoint","Humidity","Pressure","Direction","Speed","Gust","Precip","PrecipRate"
"00:04:59","69.4","67.6","94","30.09","18","0","0","0.00","0.00"
"00:09:56","69.2","67.4","94","30.09","18","0","0","0.00","0.00"
"00:14:57","69.1","67.3","94","30.09","18","0","0","0.00","0.00"
"00:19:57","69","67.2","94","30.09","263","0.2","3.6","0.00","0.00"
"00:24:57","68.9","67.1","94","30.09","263","0.3","2.3","0.00","0.00"
"00:29:57","68.8","67","94","30.09","263","0.1","1.2","0.00","0.00"
"00:34:57","68.8","67","94","30.09","263","0","1.2","0.00","0.00"
"00:39:58","68.8","67","94","30.09","263","0.1","1.2","0.00","0.00"
"00:44:58","68.8","67","94","30.09","263","0","1.2","0.00","0.00"
"00:49:58","68.7","66.9","94","30.09","263","0.1","1.2","0.00","0.00"
"00:54:58","68.7","67","94.2","30.09","263","0","0","0.00","0.00"
"00:59:59","68.6","66.8","94","30.09","263","0","0","0.00","0.00"
"01:04:59","68.4","66.6","94","30.09","263","0","0","0.00","0.00"
"01:09:59","68.3","66.5","94","30.09","263","0","0","0.00","0.00"
"01:14:56","68.1","66.4","94.4","30.09","263","0","0","0.00","0.00"
"01:19:56","68","66.5","95","30.09","263","0","0","0.00","0.00"
"01:24:56","67.9","66.4","95","30.09","263","0","0","0.00","0.00"
"01:29:56","67.8","66.3","95","30.09","263","0","0","0.00","0.00"
"01:34:56","67.7","66.2","95","30.09","263","0","0","0.00","0.00"
"01:39:57","67.6","66.1","95","30.09","263","0","0","0.00","0.00"
"01:44:57","67.5","66","95","30.09","263","0","0","0.00","0.00"
"01:49:58","67.4","65.9","95","30.09","263","0","0","0.00","0.00"
"01:54:57","67.4","65.9","95","30.09","263","0","0","0.00","0.00"
"01:59:57","67.4","65.9","95","30.09","263","0.1","1.2","0.00","0.00"
"02:04:58","67.3","65.8","95","30.09","263","0.1","1.2","0.00","0.00"
"02:09:58","67.1","65.7","95.2","30.09","263","0","1.2","0.00","0.00"
"02:14:59","67.1","65.8","95.8","30.09","263","0.1","1.2","0.00","0.00"
"02:19:59","67","65.8","96","30.09","263","0.1","1.2","0.00","0.00"
"02:24:59","66.8","65.4","95.2","30.09","263","0","1.2","0.00","0.00"
"02:29:59","66.7","65.4","95.8","30.09","263","0.2","2.4","0.00","0.00"
"02:34:59","66.7","65.5","96","30.09","263","0","1.2","0.00","0.00"
"02:39:56","66.7","65.5","96","30.09","263","0","0","0.00","0.00"
"02:44:56","66.7","65.5","96","30.10","263","0.1","1.2","0.00","0.00"
"02:49:56","66.7","65.5","96","30.10","263","0.8","2.4","0.00","0.00"
"02:54:59","66.7","65.5","96","30.10","263","0","0","0.00","0.00"
"02:59:56","66.6","65.4","96","30.10","263","0","1.2","0.00","0.00"
"03:04:58","66.5","65.3","96","30.10","263","0.1","1.2","0.00","0.00"
"03:09:58","66.5","65.3","96","30.10","263","0","0","0.00","0.00"
"03:14:59","66.6","65.4","96.2","30.10","263","0.4","2.4","0.00","0.00"
"03:19:59","66.6","65.7","97","30.09","263","0.7","2.4","0.00","0.00"
"03:24:59","66.6","65.7","97","30.09","263","0.1","2.4","0.00","0.00"
"03:29:59","66.5","65.6","97","30.09","263","0","0","0.00","0.00"
"03:34:58","66.5","65.6","97","30.09","263","0","0","0.00","0.00"
"03:39:59","66.5","65.6","97","30.09","263","0","1.2","0.00","0.00"
"03:44:56","66.5","65.6","97","30.09","263","0","1.2","0.00","0.00"
"03:49:58","66.5","65.6","97","30.09","263","0","0","0.00","0.00"
"03:54:57","66.5","65.6","97","30.09","262","0.5","2.4","0.00","0.00"
"03:59:56","66.5","65.6","97","30.10","263","0","0","0.00","0.00"
"04:04:58","66.5","65.6","97","30.10","263","0","0","0.00","0.00"
"04:09:57","66.4","65.5","97","30.10","263","0","0","0.00","0.00"
"04:14:58","66.3","65.4","97","30.10","263","0","0","0.00","0.00"
"04:19:59","66.3","65.4","97","30.09","263","0","0","0.00","0.00"
"04:24:59","66.1","65.1","96.7","30.09","263","0","0","0.00","0.00"
"04:29:59","65.9","65","97","30.09","263","0","0","0.00","0.00"
"04:34:58","65.7","64.8","97","30.09","263","0.3","2.4","0.00","0.00"
"04:39:59","65.7","64.8","97","30.09","263","0.7","2.4","0.00","0.00"
"04:44:59","65.7","64.8","97","30.10","263","0.3","2.3","0.00","0.00"
"04:49:59","65.8","64.9","97","30.10","263","0.9","2.4","0.00","0.00"
"04:54:59","65.9","65","97","30.10","263","0","2.3","0.00","0.00"
"04:59:59","65.8","64.9","97","30.10","263","0","0","0.00","0.00"
"05:04:56","65.8","64.9","97","30.10","263","0","0","0.00","0.00"
"05:09:56","65.7","64.8","97","30.10","263","0","0","0.00","0.00"
"05:14:56","65.5","64.6","97","30.10","263","0","0","0.00","0.00"
"05:19:56","65.5","64.6","97","30.09","263","0","0","0.00","0.00"
"05:24:56","65.4","64.5","97","30.09","263","0","0","0.00","0.00"
"05:29:57","65.4","64.5","97","30.10","263","0","0","0.00","0.00"
"05:34:57","65.3","64.4","97","30.10","263","0","0","0.00","0.00"
"05:39:57","65.3","64.4","97","30.10","263","0","0","0.00","0.00"
"05:44:57","65.2","64.3","97","30.10","263","0","0","0.00","0.00"
"05:49:58","65.2","64.3","97","30.10","263","0","0","0.00","0.00"
"05:54:58","65.1","64.2","97","30.10","263","0","0","0.00","0.00"
"05:59:58","65.1","64.2","97","30.10","263","0","0","0.00","0.00"
"06:04:59","65","64.1","97","30.10","263","0","0","0.00","0.00"
"06:09:59","65","64.1","97","30.10","263","0","0","0.00","0.00"
"06:14:58","65","64.1","97","30.11","263","0","0","0.00","0.00"
"06:19:57","64.9","64","97","30.11","263","0","0","0.00","0.00"
"06:24:56","64.7","63.8","97","30.11","263","0","0","0.00","0.00"
"06:29:59","64.7","63.8","97","30.11","263","0","0","0.00","0.00"
"06:34:59","64.7","63.8","97","30.11","263","0","0","0.00","0.00"
"06:39:56","64.8","63.9","97","30.11","263","0","0","0.00","0.00"
"06:44:56","64.8","63.9","97","30.12","263","0","0","0.00","0.00"
"06:49:56","64.9","64","97","30.12","263","0","0","0.00","0.00"
"06:54:59","65","64.1","97","30.12","263","0","0","0.00","0.00"
"06:59:59","65","64.1","97","30.12","263","0","0","0.00","0.00"
"07:04:56","65.2","64.4","97.4","30.12","263","0","0","0.00","0.00"
"07:09:56","65.5","64.9","98","30.12","263","0","0","0.00","0.00"
"07:14:56","65.8","65.2","98","30.12","263","0","0","0.00","0.00"
"07:19:56","66.1","65.5","98","30.12","263","0","0","0.00","0.00"
"07:24:57","66.3","65.6","97.7","30.12","263","0","0","0.00","0.00"
"07:29:57","66.6","66","98","30.14","263","0.3","2.4","0.00","0.00"
"07:34:57","66.9","66.3","98","30.14","263","0.9","3.6","0.00","0.00"
"07:39:57","67.3","66.7","98","30.14","263","1.3","3.6","0.00","0.00"
"07:44:56","67.6","66.7","97.3","30.14","263","0.6","2.4","0.00","0.00"
"07:49:56","68","67.3","97.7","30.14","263","0.2","1.2","0.00","0.00"
"07:54:56","68.3","67.4","97","30.14","263","0","1.2","0.00","0.00"
"07:59:57","68.8","67.9","97","30.14","263","0","1.2","0.00","0.00"
"08:04:57","69.2","68.3","97","30.14","281","1.4","4.8","0.00","0.00"
"08:09:57","69.6","68.4","96.1","30.14","290","1.5","4.6","0.00","0.00"
"08:14:57","70","68.6","95.3","30.15","292","1.7","3.6","0.00","0.00"
"08:19:56","70.4","68.6","94.3","30.15","293","1","3.6","0.00","0.00"
"08:24:56","70.7","68.9","94","30.15","293","0.4","2.4","0.00","0.00"
"08:29:59","71.4","69.5","93.8","30.15","293","0.2","1.2","0.00","0.00"
"08:34:59","71.9","69.5","92.2","30.15","293","0.1","1.2","0.00","0.00"
"08:39:56","72.5","70","92","30.15","227","0.2","2.4","0.00","0.00"
"08:44:59","73","70.1","90.8","30.15","227","0.1","1.2","0.00","0.00"
"08:49:59","73.3","70.2","90","30.15","227","0.5","2.4","0.00","0.00"
"08:54:59","73.9","70.9","90.1","30.15","227","0.7","2.3","0.00","0.00"
"08:59:59","74.5","70.8","88.5","30.15","227","0.6","2.4","0.00","0.00"
"09:04:59","74.8","70.9","87.5","30.15","227","0.4","2.4","0.00","0.00"
"09:09:59","75.2","71.2","87.3","30.15","227","0.5","2.4","0.00","0.00"
"09:14:59","75.6","71","85.5","30.15","245","0.9","3.6","0.00","0.00"
"09:19:59","75.8","70.8","84.5","30.15","259","0.6","3.5","0.00","0.00"
"09:24:57","76","71.3","85.1","30.15","258","0.4","2.4","0.00","0.00"
"09:29:57","76.4","71.6","85","30.15","258","0.3","1.2","0.00","0.00"
"09:34:59","76.9","72","84.8","30.15","259","0.5","3.6","0.00","0.00"
"09:39:59","77.5","71.9","83.2","30.15","259","0.4","3.5","0.00","0.00"
"09:44:58","77.9","72.2","82.4","30.15","259","0.5","3.6","0.00","0.00"
"09:49:58","78.5","72.6","82","30.15","259","0.2","1.2","0.00","0.00"
"09:54:58","79.1","73","81.8","30.15","258","0.6","2.4","0.00","0.00"
"09:59:59","79.5","72.6","79.6","30.15","258","0.1","2.3","0.00","0.00"
"10:04:56","79.6","72.6","79.2","30.14","258","1","2.4","0.00","0.00"
"10:09:57","79.8","72.8","79.2","30.14","256","0.4","2.4","0.00","0.00"
"10:14:58","80.4","73.7","79.9","30.14","256","0.8","2.4","0.00","0.00"
"10:19:58","81.2","73.6","77.9","30.13","175","1","3.6","0.00","0.00"
"10:24:58","81.3","73.2","76.3","30.13","147","0.7","3.6","0.00","0.00"
"10:29:58","81.4","73.2","76.3","30.13","147","0.4","2.4","0.00","0.00"
"10:34:58","81.3","72.6","75.1","30.13","147","0.9","3.6","0.00","0.00"
"10:39:59","81.5","73.3","76.3","30.13","148","0.1","3.5","0.00","0.00"
"10:44:59","81.8","73.3","75.5","30.13","146","1.1","4.8","0.00","0.00"
"10:49:56","82","73.1","74.6","30.13","152","0.7","4.8","0.00","0.00"
"10:54:57","82.3","73.4","74.4","30.13","155","0.5","4.6","0.00","0.00"
"10:59:57","82.6","73.5","74","30.13","155","0","0","0.00","0.00"
"11:04:59","82.8","73.5","73.4","30.13","159","1.6","6","0.00","0.00"
"11:09:56","83.4","73","71.1","30.13","160","1.8","4.8","0.00","0.00"
"11:14:57","83.8","73.4","71","30.13","157","0.9","3.6","0.00","0.00"
"11:19:57","84.3","73.3","69.6","30.13","157","1.3","3.6","0.00","0.00"
"11:24:57","84.2","72.3","67.5","30.13","165","1.8","3.6","0.00","0.00"
"11:29:58","84.4","73.4","69.6","30.13","186","1.1","4.8","0.00","0.00"
"11:34:57","84.8","72.2","66","30.13","183","3.1","6","0.00","0.00"
"11:39:59","84.6","72.4","66.8","30.13","190","3.8","7.2","0.00","0.00"
"11:44:59","84.7","72.6","67.3","30.13","192","1.9","4.8","0.00","0.00"
"11:49:59","85.5","72.5","65.2","30.12","133","1.7","6","0.00","0.00"
"11:54:59","85.9","72.9","65.4","30.12","166","1.8","6","0.00","0.00"
"11:59:59","86.1","73.2","65.5","30.12","147","1.9","8.4","0.00","0.00"
"12:04:56","86.1","72.3","63.7","30.12","183","3.7","8.4","0.00","0.00"
"12:09:58","86.4","72","62.4","30.12","191","3.7","8.1","0.00","0.00"
"12:14:59","86.5","72","62.1","30.12","185","4.7","10.8","0.00","0.00"
"12:19:56","86.9","72.2","61.9","30.12","184","2.5","6","0.00","0.00"
"12:24:59","86.8","72.2","61.8","30.12","202","3.1","6","0.00","0.00"
"12:29:59","87.2","73","62.7","30.12","144","2.7","8.4","0.00","0.00"
"12:34:59","87.3","72.3","61.2","30.11","156","3.1","8.4","0.00","0.00"
"12:39:56","87.4","72.4","61.1","30.11","153","3.9","8.1","0.00","0.00"
"12:44:57","87.6","71.9","59.9","30.11","122","2.3","6","0.00","0.00"
"12:49:58","87.5","70.5","57.2","30.10","128","3.1","8.4","0.00","0.00"
"12:54:59","87.4","70.8","57.9","30.10","112","1.8","6","0.00","0.00"
"12:59:56","87.8","70.7","57","30.10","140","2.3","7.2","0.00","0.00"
"13:04:57","88","69.5","54.4","30.10","167","3.6","8.4","0.00","0.00"
"13:09:59","88.3","70.9","56.6","30.10","166","3","8.4","0.00","0.00"
"13:14:57","88.5","71.9","58.2","30.10","170","2.6","7.2","0.00","0.00"
"13:19:58","88.3","71.5","57.6","30.10","146","1.5","4.8","0.00","0.00"
"13:24:58","88.3","71.7","58.2","30.10","151","2.5","10.8","0.00","0.00"
"13:29:59","88.7","72.1","58.2","30.10","202","5.1","12","0.00","0.00"
"13:34:56","88.9","72.4","58.4","30.09","183","3.4","8.1","0.00","0.00"
"13:39:58","89","71.9","57.3","30.09","162","2.6","9.6","0.00","0.00"
"13:44:59","88.9","72.2","57.9","30.09","179","2.4","8.4","0.00","0.00"
"13:49:55","88.9","71.6","56.8","30.09","163","1.8","4.6","0.00","0.00"
"13:54:56","89","71.8","57.1","30.09","165","2.2","7.2","0.00","0.00"
"13:59:58","89.4","71.9","56.5","30.09","219","3.2","8.4","0.00","0.00"
"14:04:59","89.6","71.9","56.1","30.08","216","2","6","0.00","0.00"
"14:09:59","89.6","72.1","56.5","30.08","139","3.5","12","0.00","0.00"
"14:14:57","89.5","72.8","57.9","30.08","135","3","6","0.00","0.00"
"14:19:58","89.9","72.9","57.5","30.07","154","2.2","4.8","0.00","0.00"
"14:24:58","89.6","72.4","57.2","30.07","147","1.9","4.8","0.00","0.00"
"14:29:55","89.1","72.1","57.3","30.07","157","4.4","13.2","0.00","0.00"
"14:34:56","88.9","71","55.5","30.07","151","3.9","10.8","0.00","0.00"
"14:39:57","89.3","70.9","54.7","30.07","152","3.8","10.8","0.00","0.00"
"14:44:58","89.7","71.2","54.7","30.07","147","3.6","8.4","0.00","0.00"
"14:49:59","90.1","71.2","54.1","30.07","209","5","12","0.00","0.00"
"14:54:56","90.7","72.9","56","30.07","166","1.5","6.9","0.00","0.00"
"14:59:57","91.5","72.1","53.2","30.07","196","4.5","8.4","0.00","0.00"
"15:04:58","91.9","72.3","53","30.06","185","4.1","10.8","0.00","0.00"
"15:09:59","92","70.6","49.9","30.06","171","4","10.4","0.00","0.00"
"15:14:56","92","69.7","48.4","30.06","224","3.2","10.8","0.00","0.00"
"15:19:58","91.9","71","50.7","30.06","184","3.1","8.4","0.00","0.00"
"15:24:58","92","69.8","48.5","30.06","168","3.3","7.2","0.00","0.00"
"15:29:59","92.1","70.3","49.2","30.06","157","3.2","9.6","0.00","0.00"
"15:34:58","91.4","70.5","50.7","30.05","140","1.3","4.8","0.00","0.00"
"15:39:57","91.4","71","51.6","30.05","164","2.8","7.2","0.00","0.00"
"15:44:58","91.9","70.2","49.4","30.05","236","3.5","7.2","0.00","0.00"
"15:49:59","92","70.4","49.4","30.04","222","3.7","8.4","0.00","0.00"
"15:54:56","92.3","70.3","48.9","30.04","241","4.5","7.2","0.00","0.00"
"15:59:57","92","70.4","49.4","30.04","220","2.7","6.9","0.00","0.00"
"16:04:58","92.2","70.5","49.5","30.04","209","5","12","0.00","0.00"
"16:09:59","91.9","71.2","50.9","30.04","183","4","8.4","0.00","0.00"
"16:14:56","92.2","71.8","51.6","30.04","149","3.9","10.8","0.00","0.00"
"16:19:58","91.9","71.5","51.5","30.04","125","2.6","8.1","0.00","0.00"
"16:24:58","91.9","71.8","52.1","30.04","191","3.6","12","0.00","0.00"
"16:29:59","92.3","71.1","50.1","30.04","217","3.5","6","0.00","0.00"
"16:34:56","92.6","72.3","51.7","30.03","158","2.9","6","0.00","0.00"
"16:39:57","92.3","71.5","50.9","30.03","149","3.8","13.2","0.00","0.00"
"16:44:58","92.2","71.7","51.3","30.03","165","3.7","8.4","0.00","0.00"
"16:49:58","92.4","71.5","50.7","30.03","179","3.8","7.2","0.00","0.00"
"16:54:59","92.1","70.8","50.2","30.03","176","5","12","0.00","0.00"
"16:59:56","92.1","70.6","49.7","30.03","184","5.3","12","0.00","0.00"
"17:04:57","92.2","71.1","50.4","30.03","198","4.5","10.8","0.00","0.00"
"17:09:57","92.2","71.1","50.2","30.03","180","4.9","10.8","0.00","0.00"
"17:14:59","92","71.2","50.8","30.03","183","2.9","8.4","0.00","0.00"
"17:19:56","91.9","71.4","51.4","30.03","170","4.1","13.2","0.00","0.00"
"17:24:57","91.8","70.9","50.6","30.03","182","4.1","12.7","0.00","0.00"
"17:29:57","91.8","71.1","50.9","30.03","218","3.4","7.2","0.00","0.00"
"17:34:58","91.9","70.6","50.1","30.03","177","3.6","6","0.00","0.00"
"17:39:56","91.6","71.5","52.1","30.03","174","2.8","7.2","0.00","0.00"
"17:44:56","91.5","70.5","50.4","30.03","175","4","8.4","0.00","0.00"
"17:49:57","91.6","69.6","48.9","30.02","190","5.2","10.8","0.00","0.00"
"17:54:58","91.3","68.7","47.7","30.02","166","3.4","12","0.00","0.00"
"17:59:58","91","68.6","48","30.02","159","4.9","13.2","0.00","0.00"
"18:04:56","90.8","68.1","47.5","30.01","179","4.1","12.7","0.00","0.00"
"18:09:57","90.7","67.6","46.9","30.01","185","4","10.8","0.00","0.00"
"18:14:58","90.7","68","47.4","30.01","173","4.6","10.8","0.00","0.00"
"18:19:59","90.6","68.5","48.5","30.01","183","4.5","8.4","0.00","0.00"
"18:24:56","90.2","68.6","49.1","30.01","198","4.6","12","0.00","0.00"
"18:29:58","89.9","68.7","50","30.01","185","3.5","10.4","0.00","0.00"
"18:34:57","89.7","68.8","50.3","30.01","193","5.8","12","0.00","0.00"
"18:39:58","89.5","68.9","50.9","30.01","191","4.4","9.6","0.00","0.00"
"18:44:57","89.2","68.5","50.7","30.01","182","6.2","15","0.00","0.00"
"18:49:59","89","68.7","51.5","30.01","176","4.6","8.1","0.00","0.00"
"18:54:56","88.8","68.9","52.1","30.01","191","4","10.8","0.00","0.00"
"18:59:58","88.6","69.1","52.6","30.02","163","2.8","8.4","0.00","0.00"
"19:04:59","88.5","68.7","52.2","30.02","191","4.5","8.4","0.00","0.00"
"19:09:56","88.4","68.5","52","30.02","156","3.7","7.2","0.00","0.00"
"19:14:59","88.3","68.5","52.2","30.02","176","3.3","8.4","0.00","0.00"
"19:19:56","88.1","68.5","52.4","30.01","178","4.2","7.2","0.00","0.00"
"19:24:57","87.9","68.6","53","30.01","176","3.7","10.8","0.00","0.00"
"19:29:58","87.6","68.4","53.1","30.01","180","4.2","12","0.00","0.00"
"19:34:59","87.4","68.7","54","30.01","173","3.9","10.8","0.00","0.00"
"19:39:57","87.1","69","54.9","30.01","184","3.1","7.2","0.00","0.00"
"19:44:58","86.8","68.8","55.2","30.01","184","3.2","7.2","0.00","0.00"
"19:49:59","86.5","68.9","56","30.01","165","2.5","6.9","0.00","0.00"
"19:54:56","86.3","68.9","56.2","30.01","159","2.8","6","0.00","0.00"
"19:59:58","86.1","68.8","56.5","30.01","175","2.3","6","0.00","0.00"
"20:04:55","85.8","68.5","56.4","30.01","171","3.4","7.2","0.00","0.00"
"20:09:56","85.6","68.2","56.2","30.01","147","2.4","6","0.00","0.00"
"20:14:58","85.4","68.3","56.8","30.01","154","3.5","8.4","0.00","0.00"
"20:19:56","85.2","68.2","57","30.01","170","3.3","8.1","0.00","0.00"
"20:24:57","85.1","68.4","57.5","30.01","155","3","7.2","0.00","0.00"
"20:29:59","84.9","68.6","58.1","30.01","174","2.8","8.4","0.00","0.00"
"20:34:56","84.7","68.6","58.6","30.01","159","2.3","6","0.00","0.00"
"20:39:58","84.4","68.7","59.3","30.01","170","2.3","6","0.00","0.00"
"20:44:56","84.2","69","60.4","30.01","173","2.1","4.8","0.00","0.00"
"20:49:58","83.9","69.3","61.6","30.01","155","1.7","6","0.00","0.00"
"20:54:59","83.7","69.8","63.2","30.01","152","2.9","6","0.00","0.00"
"20:59:56","83.4","70.2","64.5","30.01","156","2.1","4.8","0.00","0.00"
"21:04:58","83.1","70.5","65.8","30.01","161","2.3","6","0.00","0.00"
"21:09:59","82.8","70.6","66.8","30.01","149","2.9","4.8","0.00","0.00"
"21:14:57","82.7","71","67.8","30.01","157","3","8.4","0.00","0.00"
"21:19:58","82.7","71.1","68","30.01","145","2.6","7.2","0.00","0.00"
"21:24:56","82.5","71.1","68.5","30.01","161","2.8","7.2","0.00","0.00"
"21:29:57","82.3","71.1","69","30.01","174","3.1","6.9","0.00","0.00"
"21:34:58","82.2","71.4","70","30.01","169","2.2","6","0.00","0.00"
"21:39:56","82","71.2","70","30.01","185","1.8","6","0.00","0.00"
"21:44:58","81.8","71.6","71.4","30.01","182","2.2","5.8","0.00","0.00"
"21:49:59","81.6","72.1","73","30.01","153","3","7.2","0.00","0.00"
"21:54:56","81.5","72.8","75.1","30.01","152","2","4.8","0.00","0.00"
"21:59:58","81.4","73.5","77.1","30.01","162","1.6","4.8","0.00","0.00"
"22:04:56","81.2","73.7","78.1","30.01","164","1.8","7.2","0.00","0.00"
"22:09:57","81","74","79.5","30.01","166","1.9","4.8","0.00","0.00"
"22:14:59","80.7","73.9","79.8","30.01","171","1.4","3.6","0.00","0.00"
"22:19:57","80.4","73.9","80.8","30.01","170","1.6","3.6","0.00","0.00"
"22:24:59","80.2","73.8","81","30.01","171","0.8","3.6","0.00","0.00"
"22:29:57","80","73.7","81.2","30.01","171","0.7","2.4","0.00","0.00"
"22:34:58","79.7","73.7","82","30.01","171","0.6","2.4","0.00","0.00"
"22:39:57","79.5","73.5","82","30.01","171","0.1","1.2","0.00","0.00"
"22:44:59","79.3","73.3","82","30.01","171","0","1.2","0.00","0.00"
"22:49:58","79.1","73.1","82","30.01","171","0","0","0.00","0.00"
"22:54:59","78.9","73.1","82.6","30.01","171","0","0","0.00","0.00"
"22:59:56","78.5","73.1","83.6","30.01","171","0","0","0.00","0.00"
"23:04:57","78.1","72.9","84","30.01","171","0","0","0.00","0.00"
"23:09:57","77.8","72.8","84.7","30.01","171","0","0","0.00","0.00"
"23:14:58","77.6","72.7","85","30.01","171","0","0","0.00","0.00"
"23:19:59","77.4","72.6","85.3","30.01","171","0","0","0.00","0.00"
"23:24:59","77.2","72.8","86.3","30.01","171","0","0","0.00","0.00"
"23:29:59","77.2","73","87","30.01","171","0","2.4","0.00","0.00"
"23:34:59","77.1","73.3","87.9","30.01","171","1.2","3.6","0.00","0.00"
"23:39:56","77.2","73.4","88","30.01","173","1.1","3.6","0.00","0.00"
"23:44:56","77.1","73.2","87.8","30.02","174","1.4","3.6","0.00","0.00"
"23:49:56","77","72.7","86.5","30.02","174","1.6","3.6","0.00","0.00"
"23:54:56","76.9","72.4","86","30.02","174","0","2.3","0.00","0.00"
